Weather Roundup
Issued by NWS Corpus Christi, TX

Home | Current Version | Previous Version | Text Only | Print | Product List | Glossary On
Versions: 1 2 3 4 5 6 7 8 9 10 11 12 13 14 15 16 17 18 19 20 21 22 23 24 25 26 27 28 29 30 31 32 33 34 35 36 37 38 39 40 41 42 43 44 45 46 47 48 49 50
000
ASUS44 KCRP 080010
HRRCRP

SOUTH TEXAS REGIONAL WEATHER ROUNDUP
NATIONAL WEATHER SERVICE CORPUS CHRISTI TX
700 PM CDT TUE JUL 07 2015


TXZ229>244-080100-
...CORPUS CHRISTI AREA OBSERVATIONS...

CITY           SKY/WX    TMP DP  RH WIND       PRES   REMARKS
CORPUS CHRISTI CLOUDY    87  76  69 SE21G29   29.92F HX  97
NAS CORPUS CHR PTSUNNY   84  79  85 SE20G30   29.93F HX  96
ROCKPORT       LGT RAIN  85  78  80 SE14G22   29.93F HX  96
KINGSVILLE NAS CLOUDY    87  79  76 SE18G31   29.91R HX 101
ALICE          PTSUNNY   88  77  69 SE23G31   29.90S HX 100
FALFURRIAS     MOSUNNY   91  73  56 SE17      29.89S HX  98
$$

...VICTORIA AREA OBSERVATIONS...

CITY           SKY/WX    TMP DP  RH WIND       PRES   REMARKS
VICTORIA       PTSUNNY   86  76  71 SE22      29.95F HX  96
BEEVILLE       PTSUNNY   86  77  74 SE14G24   29.93R HX  97
PLEASANTON     PTSUNNY   87  71  58 SE12G18   29.90S HX  93
SAN ANTONIO    CLOUDY    87  73  62 SE20      29.92F HX  94
$$

...LAREDO AREA OBSERVATIONS...

CITY           SKY/WX    TMP DP  RH WIND       PRES   REMARKS
LAREDO         MOSUNNY   95  69  42 SE14      29.87S HX 100
COTULLA        MOSUNNY   92  70  48 SE17      29.86S HX  97
DEL RIO        MOSUNNY   84  70  62 SE8       29.86F
MCALLEN        SUNNY     92  73  53 SE22      29.88F HX 100
HEBBRONVILLE     N/A     89  69  50 SE16G22   29.90S HX  94
$$

...OTHER TEXAS OBSERVATIONS...

CITY           SKY/WX    TMP DP  RH WIND       PRES   REMARKS
BROWNSVILLE    MOSUNNY   87  77  72 SE21G29   29.91F HX  99
HOUSTON        PTSUNNY   87  74  64 S14G22    29.98R HX  95
COL. STATION   MOSUNNY   87  72  60 S13       29.95S HX  93
AUSTIN         CLOUDY    87  73  62 S16G26    29.92F HX  94
WACO           CLOUDY    87  71  58 S18G25    29.92S HX  93
FORT WORTH     CLOUDY    89  69  51 S18       29.90S HX  93
WICHITA FALLS  LGT RAIN  72  71  97 W7        29.92S FOG
LUBBOCK        CLOUDY    68  62  81 NE10      30.06S
EL PASO        PTSUNNY   80  58  46 N26G44    29.95R BLWGDUST
$$

...MARINE OBSERVATIONS...

STATION/POSITION TIME  SKY/WX   TEMP    WIND        PRES    VSBY  WAVE   SWELL
                                AIR SEA DIR/SP/G                  HT/PER HT/PER
                 (UTC)          (F)     (DEG/KT/KT) (MB)    (MI)  (FT/S) (FT/S)
PORT ARANSAS     2300            83 84  130/ 17/ 19 1014.7F
BUOY 90 E PORT A NOT AVBL
BUOY 45 SE BAFFI 2350            83 83  150/ 16/ 17 1013.1F         5/ 6   2/10
BUOY 200 E PT IS 2350            85 84  150/ 14/ 17 1016.1F         4/ 5   2/10
BUOY 15 E GALVES 2350            85 85  170/ 14/ 17 1015.4F         4/ 6
$$


USA.gov is the U.S. government's official web portal to all federal, state and local government web resources and services.